N6725T LFKO-EDFC

Flight info

Callsign N6725T
Flight time 2h 22m
Altitude 18000
Route AJO M622 MERLU DCT PIGOS DCT GIPNO/N0232F190 DCT OMASI N871 DITON T163 NELLI/N0235F200 T163 KOVAN L608 BANIM
Aircraft B58T/L-SDFGRY/C

Departure

Time 2026-05-07 18:22
Airport Propriano Airport (LFKO)

Arrival

Time 2026-05-07 20:44
Airport Aschaffenburg Airfield (EDFC)
Time Latitude Longitude Altitude Speed Heading
2026-05-07 18:16 41.65926 8.89367 27 ft 0 kts 227°
2026-05-07 18:20 41.65941 8.89360 26 ft 7 kts 88°
2026-05-07 18:20 41.65942 8.89378 27 ft 0 kts 52°
2026-05-07 18:21 41.66000 8.89397 26 ft 16 kts 16°
2026-05-07 18:21 41.66016 8.89540 27 ft 17 kts 95°
2026-05-07 18:21 41.66004 8.89718 28 ft 22 kts 101°
2026-05-07 18:21 41.66002 8.89803 27 ft 1 kts 279°
2026-05-07 18:22 41.66012 8.89673 29 ft 52 kts 276°
2026-05-07 18:22 41.66047 8.89173 23 ft 104 kts 276°
2026-05-07 18:22 41.66167 8.87592 272 ft 139 kts 277°
2026-05-07 18:22 41.66278 8.86295 702 ft 140 kts 277°
2026-05-07 18:23 41.66335 8.84997 1056 ft 141 kts 274°
2026-05-07 18:23 41.66579 8.83661 1174 ft 153 kts 305°
2026-05-07 18:23 41.67418 8.82833 1421 ft 152 kts 338°
2026-05-07 18:23 41.68414 8.82332 1688 ft 153 kts 341°
2026-05-07 18:24 41.69401 8.81838 2007 ft 150 kts 340°
2026-05-07 18:24 41.70362 8.81319 2337 ft 148 kts 339°
2026-05-07 18:24 41.71314 8.80787 2671 ft 148 kts 339°
2026-05-07 18:24 41.72270 8.80244 3062 ft 151 kts 338°
2026-05-07 18:25 41.73241 8.79681 3407 ft 153 kts 338°
2026-05-07 18:25 41.74218 8.79113 3711 ft 153 kts 338°
2026-05-07 18:25 41.75193 8.78546 4029 ft 153 kts 337°
2026-05-07 18:25 41.76166 8.77971 4357 ft 153 kts 337°
2026-05-07 18:26 41.77139 8.77382 4711 ft 155 kts 334°
2026-05-07 18:26 41.78082 8.76704 5012 ft 153 kts 330°
2026-05-07 18:26 41.79008 8.76023 5315 ft 151 kts 331°
2026-05-07 18:26 41.79912 8.75364 5643 ft 149 kts 331°
2026-05-07 18:27 41.80817 8.74698 5986 ft 148 kts 330°
2026-05-07 18:27 41.81675 8.74067 6301 ft 148 kts 331°
2026-05-07 18:27 41.82592 8.73399 6618 ft 148 kts 330°
2026-05-07 18:27 41.83193 8.72961 6825 ft 148 kts 330°
2026-05-07 18:28 41.84395 8.72080 7208 ft 151 kts 329°
2026-05-07 18:28 41.85329 8.71391 7455 ft 156 kts 329°
2026-05-07 18:28 41.86292 8.70684 7709 ft 160 kts 329°
2026-05-07 18:28 41.87277 8.69963 7962 ft 163 kts 329°
2026-05-07 18:29 41.88279 8.69229 8215 ft 165 kts 329°
2026-05-07 18:29 41.89295 8.68483 8469 ft 167 kts 329°
2026-05-07 18:29 41.91125 8.67138 8946 ft 172 kts 329°
2026-05-07 18:30 41.92181 8.66360 9202 ft 174 kts 328°
2026-05-07 18:30 41.93252 8.65575 9450 ft 175 kts 328°
2026-05-07 18:30 41.94326 8.64785 9722 ft 177 kts 328°
2026-05-07 18:30 41.95409 8.63986 9976 ft 178 kts 328°
2026-05-07 18:31 41.96500 8.63186 10210 ft 179 kts 328°
2026-05-07 18:31 41.97592 8.62381 10441 ft 179 kts 328°
2026-05-07 18:31 41.98684 8.61576 10680 ft 179 kts 327°
2026-05-07 18:31 41.99777 8.60770 10923 ft 179 kts 327°
2026-05-07 18:32 42.00871 8.59965 11170 ft 179 kts 327°
2026-05-07 18:32 42.01951 8.59167 11416 ft 179 kts 327°
2026-05-07 18:32 42.03060 8.58349 11674 ft 179 kts 327°
2026-05-07 18:32 42.04153 8.57541 11921 ft 180 kts 327°
2026-05-07 18:33 42.05235 8.56742 12181 ft 180 kts 327°
2026-05-07 18:33 42.06332 8.55931 12435 ft 180 kts 327°
2026-05-07 18:33 42.07429 8.55120 12694 ft 180 kts 327°
2026-05-07 18:33 42.08529 8.54307 12959 ft 180 kts 327°
2026-05-07 18:34 42.09627 8.53494 13222 ft 180 kts 327°
2026-05-07 18:34 42.10727 8.52679 13489 ft 181 kts 327°
2026-05-07 18:34 42.11829 8.51862 13756 ft 181 kts 327°
2026-05-07 18:34 42.12934 8.51042 13998 ft 181 kts 327°
2026-05-07 18:35 42.14040 8.50222 14235 ft 182 kts 326°
2026-05-07 18:35 42.15147 8.49400 14475 ft 182 kts 326°
2026-05-07 18:35 42.16257 8.48577 14722 ft 182 kts 327°
2026-05-07 18:35 42.17369 8.47752 14967 ft 182 kts 326°
2026-05-07 18:36 42.18481 8.46926 15211 ft 183 kts 326°
2026-05-07 18:36 42.19656 8.46247 15461 ft 187 kts 344°
2026-05-07 18:36 42.20960 8.46069 15713 ft 190 kts 354°
2026-05-07 18:36 42.22288 8.46067 15965 ft 191 kts 356°
2026-05-07 18:37 42.23625 8.46105 16217 ft 192 kts 356°
2026-05-07 18:37 42.24961 8.46135 16475 ft 192 kts 356°
2026-05-07 18:37 42.26300 8.46148 16734 ft 193 kts 355°
2026-05-07 18:37 42.27627 8.46146 16991 ft 193 kts 355°
2026-05-07 18:38 42.28971 8.46131 17253 ft 193 kts 354°
2026-05-07 18:38 42.30317 8.46108 17519 ft 194 kts 354°
2026-05-07 18:38 42.31665 8.46080 17783 ft 194 kts 354°
2026-05-07 18:38 42.33029 8.46049 17949 ft 201 kts 354°
2026-05-07 18:39 42.34463 8.46012 17974 ft 210 kts 354°
2026-05-07 18:39 42.35940 8.45973 17985 ft 215 kts 354°
2026-05-07 18:39 42.37455 8.45937 17986 ft 219 kts 355°
2026-05-07 18:39 42.38990 8.45904 17989 ft 222 kts 355°
2026-05-07 18:40 42.40543 8.45870 17988 ft 224 kts 355°
2026-05-07 18:40 42.42105 8.45835 17986 ft 225 kts 355°
2026-05-07 18:40 42.43677 8.45799 17990 ft 226 kts 355°
2026-05-07 18:40 42.45255 8.45763 17988 ft 227 kts 355°
2026-05-07 18:41 42.46839 8.45727 17994 ft 228 kts 355°
2026-05-07 18:41 42.48425 8.45691 17996 ft 228 kts 355°
2026-05-07 18:41 42.50014 8.45654 17990 ft 229 kts 355°
2026-05-07 18:41 42.51608 8.45616 17995 ft 229 kts 355°
2026-05-07 18:42 42.53200 8.45579 17994 ft 229 kts 355°
2026-05-07 18:42 42.54772 8.45542 17992 ft 229 kts 355°
2026-05-07 18:42 42.56367 8.45505 17998 ft 229 kts 355°
2026-05-07 18:42 42.57963 8.45467 17995 ft 229 kts 355°
2026-05-07 18:43 42.59559 8.45429 17996 ft 229 kts 355°
2026-05-07 18:43 42.61153 8.45391 17994 ft 229 kts 355°
2026-05-07 18:43 42.62746 8.45354 17994 ft 229 kts 355°
2026-05-07 18:43 42.64341 8.45316 17994 ft 229 kts 355°
2026-05-07 18:44 42.65931 8.45278 17997 ft 229 kts 355°
2026-05-07 18:44 42.67525 8.45240 17994 ft 229 kts 355°
2026-05-07 18:44 42.69117 8.45202 17993 ft 229 kts 355°
2026-05-07 18:44 42.70707 8.45165 17995 ft 229 kts 355°
2026-05-07 18:45 42.72296 8.45127 17995 ft 228 kts 355°
2026-05-07 18:45 42.73891 8.45089 17995 ft 228 kts 355°
2026-05-07 18:45 42.75483 8.45051 17993 ft 228 kts 355°
2026-05-07 18:45 42.77071 8.45013 17991 ft 228 kts 355°
2026-05-07 18:46 42.78638 8.44976 17996 ft 228 kts 355°
2026-05-07 18:46 42.80248 8.44937 17995 ft 228 kts 355°
2026-05-07 18:46 42.81814 8.44900 17993 ft 228 kts 355°
2026-05-07 18:46 42.83402 8.44862 17997 ft 228 kts 355°
2026-05-07 18:47 42.84989 8.44824 17993 ft 228 kts 355°
2026-05-07 18:47 42.86574 8.44786 17993 ft 228 kts 355°
2026-05-07 18:47 42.88158 8.44748 17997 ft 228 kts 355°
2026-05-07 18:47 42.89746 8.44710 17994 ft 228 kts 355°
2026-05-07 18:48 42.91331 8.44672 17993 ft 228 kts 355°
2026-05-07 18:48 42.92919 8.44634 17991 ft 228 kts 355°
2026-05-07 18:48 42.94508 8.44596 17994 ft 228 kts 355°
2026-05-07 18:48 42.96095 8.44558 17992 ft 228 kts 355°
2026-05-07 18:49 42.97682 8.44520 17995 ft 228 kts 355°
2026-05-07 18:49 42.99269 8.44482 17995 ft 228 kts 355°
2026-05-07 18:49 43.00856 8.44444 17990 ft 228 kts 355°
2026-05-07 18:49 43.02444 8.44406 17993 ft 228 kts 355°
2026-05-07 18:50 43.04029 8.44368 17994 ft 228 kts 355°
2026-05-07 18:50 43.05618 8.44330 17993 ft 228 kts 355°
2026-05-07 18:50 43.07181 8.44292 17996 ft 228 kts 355°
2026-05-07 18:50 43.08767 8.44254 17991 ft 228 kts 355°
2026-05-07 18:51 43.10354 8.44216 17994 ft 228 kts 355°
2026-05-07 18:51 43.11941 8.44178 17991 ft 228 kts 355°
2026-05-07 18:51 43.13527 8.44139 17995 ft 228 kts 355°
2026-05-07 18:51 43.15111 8.44101 17991 ft 228 kts 355°
2026-05-07 18:52 43.16698 8.44063 17992 ft 228 kts 355°
2026-05-07 18:52 43.18284 8.44025 17992 ft 228 kts 355°
2026-05-07 18:52 43.19873 8.43986 17994 ft 228 kts 355°
2026-05-07 18:52 43.21460 8.43948 17996 ft 228 kts 355°
2026-05-07 18:53 43.23045 8.43909 17994 ft 228 kts 355°
2026-05-07 18:53 43.24631 8.43871 17996 ft 228 kts 355°
2026-05-07 18:53 43.26218 8.43832 17994 ft 228 kts 356°
2026-05-07 18:53 43.27806 8.43793 17997 ft 228 kts 355°
2026-05-07 18:54 43.29394 8.43755 17996 ft 228 kts 355°
2026-05-07 18:54 43.30980 8.43717 17993 ft 228 kts 355°
2026-05-07 18:54 43.32565 8.43678 17994 ft 228 kts 355°
2026-05-07 18:54 43.34151 8.43640 17992 ft 228 kts 355°
2026-05-07 18:55 43.35736 8.43602 17990 ft 228 kts 355°
2026-05-07 18:55 43.37321 8.43563 17993 ft 228 kts 356°
2026-05-07 18:55 43.38908 8.43525 17992 ft 228 kts 355°
2026-05-07 18:55 43.40492 8.43486 17993 ft 228 kts 355°
2026-05-07 18:56 43.42077 8.43447 17993 ft 228 kts 356°
2026-05-07 18:56 43.43660 8.43409 17993 ft 228 kts 356°
2026-05-07 18:56 43.45246 8.43370 17992 ft 228 kts 356°
2026-05-07 18:56 43.46829 8.43331 17993 ft 228 kts 356°
2026-05-07 18:57 43.48417 8.43293 17991 ft 228 kts 356°
2026-05-07 18:57 43.50004 8.43254 17992 ft 228 kts 356°
2026-05-07 18:57 43.51591 8.43215 17989 ft 228 kts 356°
2026-05-07 18:57 43.53174 8.43176 17993 ft 228 kts 356°
2026-05-07 18:58 43.54758 8.43137 17994 ft 228 kts 356°
2026-05-07 18:58 43.56331 8.43099 17991 ft 228 kts 356°
2026-05-07 18:58 43.57914 8.43060 17994 ft 228 kts 356°
2026-05-07 18:58 43.59502 8.43022 17986 ft 228 kts 356°
2026-05-07 18:59 43.61088 8.42983 17990 ft 228 kts 356°
2026-05-07 18:59 43.62676 8.42944 17988 ft 228 kts 356°
2026-05-07 18:59 43.64260 8.42905 17990 ft 228 kts 356°
2026-05-07 18:59 43.65848 8.42866 17989 ft 228 kts 356°
2026-05-07 19:00 43.67435 8.42827 17989 ft 228 kts 356°
2026-05-07 19:00 43.69022 8.42788 17991 ft 228 kts 356°
2026-05-07 19:00 43.70609 8.42749 17991 ft 228 kts 356°
2026-05-07 19:00 43.72198 8.42710 17990 ft 228 kts 356°
2026-05-07 19:01 43.73788 8.42671 17990 ft 228 kts 356°
2026-05-07 19:01 43.75377 8.42632 17991 ft 228 kts 356°
2026-05-07 19:01 43.76970 8.42592 17990 ft 228 kts 356°
2026-05-07 19:01 43.78541 8.42554 17989 ft 228 kts 356°
2026-05-07 19:02 43.80130 8.42515 17990 ft 229 kts 356°
2026-05-07 19:02 43.81721 8.42475 17990 ft 229 kts 356°
2026-05-07 19:02 43.83311 8.42436 17995 ft 229 kts 356°
2026-05-07 19:02 43.84901 8.42397 17991 ft 229 kts 356°
2026-05-07 19:03 43.86494 8.42358 17995 ft 229 kts 356°
2026-05-07 19:03 43.88085 8.42318 17990 ft 229 kts 356°
2026-05-07 19:03 43.89679 8.42279 17993 ft 229 kts 356°
2026-05-07 19:03 43.91271 8.42239 17995 ft 229 kts 356°
2026-05-07 19:04 43.92861 8.42200 17992 ft 229 kts 356°
2026-05-07 19:04 43.94452 8.42160 17996 ft 229 kts 356°
2026-05-07 19:04 43.96045 8.42121 17995 ft 229 kts 356°
2026-05-07 19:04 43.97634 8.42081 17991 ft 229 kts 356°
2026-05-07 19:05 43.99226 8.42042 17994 ft 228 kts 356°
2026-05-07 19:05 44.00815 8.42003 17996 ft 228 kts 356°
2026-05-07 19:05 44.02387 8.41963 17997 ft 229 kts 356°
2026-05-07 19:05 44.03980 8.41924 18003 ft 229 kts 356°
2026-05-07 19:06 44.05572 8.41884 17998 ft 229 kts 356°
2026-05-07 19:06 44.08755 8.41805 17998 ft 229 kts 356°
2026-05-07 19:06 44.10347 8.41765 17998 ft 229 kts 356°
2026-05-07 19:07 44.11938 8.41726 17997 ft 228 kts 356°
2026-05-07 19:07 44.13529 8.41686 18002 ft 228 kts 356°
2026-05-07 19:07 44.15118 8.41646 17997 ft 228 kts 356°
2026-05-07 19:07 44.16707 8.41607 17999 ft 228 kts 356°
2026-05-07 19:08 44.18294 8.41567 18002 ft 228 kts 356°
2026-05-07 19:08 44.19885 8.41527 17996 ft 228 kts 356°
2026-05-07 19:08 44.21471 8.41487 17995 ft 228 kts 356°
2026-05-07 19:08 44.23053 8.41447 17997 ft 228 kts 356°
2026-05-07 19:09 44.24639 8.41407 18009 ft 228 kts 356°
2026-05-07 19:09 44.26227 8.41368 17998 ft 228 kts 356°
2026-05-07 19:09 44.27817 8.41330 17999 ft 229 kts 356°
2026-05-07 19:09 44.29389 8.41290 17998 ft 229 kts 356°
2026-05-07 19:10 44.30980 8.41250 18002 ft 229 kts 356°
2026-05-07 19:10 44.32577 8.41210 18004 ft 229 kts 356°
2026-05-07 19:10 44.34177 8.41170 17999 ft 229 kts 356°
2026-05-07 19:10 44.35771 8.41130 18000 ft 229 kts 356°
2026-05-07 19:11 44.37364 8.41089 18000 ft 229 kts 356°
2026-05-07 19:11 44.38959 8.41048 18000 ft 229 kts 356°
2026-05-07 19:11 44.40550 8.41009 17996 ft 229 kts 356°
2026-05-07 19:11 44.42142 8.40969 18000 ft 229 kts 356°
2026-05-07 19:12 44.43732 8.40929 17995 ft 228 kts 356°
2026-05-07 19:12 44.45320 8.40889 17997 ft 228 kts 356°
2026-05-07 19:12 44.46909 8.40849 17998 ft 228 kts 356°
2026-05-07 19:12 44.47966 8.40822 17997 ft 228 kts 356°
2026-05-07 19:13 44.50069 8.40769 18000 ft 228 kts 356°
2026-05-07 19:13 44.51658 8.40729 18001 ft 228 kts 356°
2026-05-07 19:13 44.53245 8.40688 18003 ft 228 kts 356°
2026-05-07 19:13 44.54833 8.40647 17999 ft 228 kts 356°
2026-05-07 19:14 44.55887 8.40621 18003 ft 228 kts 356°
2026-05-07 19:14 44.57475 8.40582 17998 ft 228 kts 356°
2026-05-07 19:14 44.59066 8.40542 17996 ft 228 kts 356°
2026-05-07 19:14 44.60650 8.40502 17995 ft 228 kts 356°
2026-05-07 19:15 44.62234 8.40462 18000 ft 227 kts 356°
2026-05-07 19:15 44.63821 8.40421 17996 ft 227 kts 356°
2026-05-07 19:15 44.65400 8.40381 17998 ft 227 kts 356°
2026-05-07 19:15 44.66980 8.40341 18000 ft 227 kts 356°
2026-05-07 19:16 44.68566 8.40301 17998 ft 228 kts 356°
2026-05-07 19:16 44.70150 8.40260 18002 ft 228 kts 356°
2026-05-07 19:16 44.71719 8.40219 18005 ft 228 kts 356°
2026-05-07 19:16 44.73305 8.40178 17995 ft 228 kts 356°
2026-05-07 19:17 44.74893 8.40139 17994 ft 228 kts 356°
2026-05-07 19:17 44.76481 8.40099 17996 ft 228 kts 356°
2026-05-07 19:17 44.78073 8.40059 17996 ft 229 kts 356°
2026-05-07 19:17 44.79664 8.40019 17991 ft 229 kts 356°
2026-05-07 19:18 44.81256 8.39978 17992 ft 229 kts 356°
2026-05-07 19:18 44.82845 8.39935 17991 ft 228 kts 356°
2026-05-07 19:18 44.84433 8.39896 17992 ft 228 kts 356°
2026-05-07 19:18 44.86022 8.39856 17989 ft 228 kts 356°
2026-05-07 19:19 44.87612 8.39816 17992 ft 228 kts 356°
2026-05-07 19:19 44.89200 8.39774 17984 ft 228 kts 356°
2026-05-07 19:19 44.90789 8.39732 17986 ft 228 kts 356°
2026-05-07 19:19 44.92372 8.39691 17988 ft 228 kts 356°
2026-05-07 19:20 44.93964 8.39652 17985 ft 228 kts 356°
2026-05-07 19:20 44.95552 8.39614 17994 ft 228 kts 356°
2026-05-07 19:20 44.97140 8.39575 17992 ft 228 kts 356°
2026-05-07 19:20 44.98728 8.39534 17985 ft 228 kts 356°
2026-05-07 19:21 45.00295 8.39492 17989 ft 228 kts 356°
2026-05-07 19:21 45.01882 8.39449 17986 ft 228 kts 356°
2026-05-07 19:21 45.03470 8.39406 17985 ft 228 kts 356°
2026-05-07 19:21 45.05056 8.39366 17984 ft 228 kts 356°
2026-05-07 19:22 45.06639 8.39325 17992 ft 228 kts 356°
2026-05-07 19:22 45.08235 8.39285 17987 ft 228 kts 356°
2026-05-07 19:22 45.09821 8.39244 17988 ft 228 kts 356°
2026-05-07 19:22 45.11405 8.39202 17992 ft 227 kts 355°
2026-05-07 19:23 45.12990 8.39161 17995 ft 227 kts 356°
2026-05-07 19:23 45.14569 8.39124 17995 ft 227 kts 356°
2026-05-07 19:23 45.16127 8.39086 17999 ft 226 kts 355°
2026-05-07 19:23 45.17699 8.39043 17999 ft 226 kts 355°
2026-05-07 19:24 45.19272 8.39000 18003 ft 226 kts 355°
2026-05-07 19:24 45.20847 8.38960 18011 ft 226 kts 355°
2026-05-07 19:24 45.22420 8.38918 18008 ft 226 kts 355°
2026-05-07 19:24 45.23996 8.38877 18008 ft 226 kts 355°
2026-05-07 19:25 45.25570 8.38837 18008 ft 226 kts 355°
2026-05-07 19:25 45.27142 8.38797 18008 ft 226 kts 355°
2026-05-07 19:25 45.28717 8.38755 18010 ft 226 kts 355°
2026-05-07 19:25 45.30290 8.38712 18008 ft 226 kts 355°
2026-05-07 19:26 45.31860 8.38672 18012 ft 225 kts 355°
2026-05-07 19:26 45.33427 8.38633 18007 ft 225 kts 355°
2026-05-07 19:26 45.34994 8.38593 18013 ft 225 kts 355°
2026-05-07 19:26 45.36564 8.38551 18012 ft 225 kts 355°
2026-05-07 19:27 45.38131 8.38511 18015 ft 225 kts 355°
2026-05-07 19:27 45.39695 8.38472 18009 ft 225 kts 355°
2026-05-07 19:27 45.41260 8.38429 18013 ft 225 kts 355°
2026-05-07 19:27 45.42825 8.38388 18007 ft 225 kts 355°
2026-05-07 19:28 45.44391 8.38347 18010 ft 225 kts 355°
2026-05-07 19:28 45.45954 8.38308 17995 ft 225 kts 355°
2026-05-07 19:28 45.47517 8.38268 17996 ft 225 kts 355°
2026-05-07 19:28 45.49079 8.38226 17993 ft 225 kts 355°
2026-05-07 19:29 45.50642 8.38184 17998 ft 225 kts 355°
2026-05-07 19:29 45.52207 8.38143 17995 ft 225 kts 355°
2026-05-07 19:29 45.53771 8.38103 17993 ft 225 kts 355°
2026-05-07 19:29 45.55314 8.38062 17993 ft 224 kts 355°
2026-05-07 19:30 45.56876 8.38021 18000 ft 225 kts 355°
2026-05-07 19:30 45.58442 8.37979 17996 ft 225 kts 355°
2026-05-07 19:30 45.60003 8.37938 17994 ft 224 kts 355°
2026-05-07 19:30 45.61560 8.37898 17999 ft 224 kts 355°
2026-05-07 19:31 45.63122 8.37856 17994 ft 224 kts 355°
2026-05-07 19:31 45.64684 8.37815 17998 ft 225 kts 355°
2026-05-07 19:31 45.66246 8.37777 18000 ft 225 kts 355°
2026-05-07 19:31 45.67811 8.37736 17996 ft 225 kts 355°
2026-05-07 19:32 45.69373 8.37693 17989 ft 224 kts 355°
2026-05-07 19:32 45.70930 8.37652 17993 ft 223 kts 354°
2026-05-07 19:32 45.72480 8.37610 17997 ft 223 kts 355°
2026-05-07 19:32 45.74034 8.37569 17998 ft 223 kts 354°
2026-05-07 19:33 45.75583 8.37529 18001 ft 223 kts 354°
2026-05-07 19:33 45.77132 8.37489 17999 ft 223 kts 354°
2026-05-07 19:33 45.78670 8.37445 17960 ft 220 kts 354°
2026-05-07 19:33 45.80187 8.37405 17972 ft 216 kts 354°
2026-05-07 19:34 45.81692 8.37368 18006 ft 217 kts 354°
2026-05-07 19:34 45.83191 8.37330 18015 ft 219 kts 354°
2026-05-07 19:34 45.84723 8.37289 18007 ft 220 kts 354°
2026-05-07 19:34 45.86254 8.37245 17996 ft 219 kts 354°
2026-05-07 19:35 45.87779 8.37209 18012 ft 219 kts 354°
2026-05-07 19:35 45.89304 8.37169 18007 ft 219 kts 354°
2026-05-07 19:35 45.90830 8.37125 18020 ft 219 kts 354°
2026-05-07 19:35 45.92367 8.37082 18025 ft 221 kts 354°
2026-05-07 19:36 45.93917 8.37037 18025 ft 223 kts 354°
2026-05-07 19:36 45.95458 8.36995 18023 ft 225 kts 354°
2026-05-07 19:36 45.97026 8.36956 18008 ft 225 kts 354°
2026-05-07 19:36 45.98595 8.36917 18010 ft 225 kts 354°
2026-05-07 19:37 46.00161 8.36877 18012 ft 225 kts 354°
2026-05-07 19:37 46.01727 8.36834 18017 ft 225 kts 354°
2026-05-07 19:37 46.03297 8.36789 18021 ft 226 kts 354°
2026-05-07 19:37 46.04870 8.36749 18018 ft 226 kts 354°
2026-05-07 19:38 46.06445 8.36710 18009 ft 226 kts 354°
2026-05-07 19:38 46.08014 8.36670 18021 ft 225 kts 354°
2026-05-07 19:38 46.09565 8.36627 18024 ft 226 kts 354°
2026-05-07 19:38 46.11141 8.36586 18023 ft 227 kts 354°
2026-05-07 19:39 46.12720 8.36545 18019 ft 227 kts 354°
2026-05-07 19:39 46.14299 8.36501 18019 ft 226 kts 354°
2026-05-07 19:39 46.15875 8.36456 18022 ft 227 kts 354°
2026-05-07 19:39 46.17459 8.36412 18015 ft 227 kts 354°
2026-05-07 19:40 46.19044 8.36366 18024 ft 228 kts 354°
2026-05-07 19:40 46.20626 8.36325 18009 ft 227 kts 355°
2026-05-07 19:40 46.22198 8.36288 18029 ft 226 kts 354°
2026-05-07 19:40 46.23772 8.36249 18033 ft 227 kts 354°
2026-05-07 19:41 46.25332 8.36207 18029 ft 227 kts 354°
2026-05-07 19:41 46.26914 8.36163 18027 ft 228 kts 354°
2026-05-07 19:41 46.28497 8.36120 18024 ft 228 kts 355°
2026-05-07 19:41 46.30083 8.36075 18021 ft 227 kts 355°
2026-05-07 19:42 46.31665 8.36032 18030 ft 228 kts 354°
2026-05-07 19:42 46.33251 8.35990 18028 ft 227 kts 354°
2026-05-07 19:42 46.34704 8.35953 18021 ft 226 kts 354°
2026-05-07 19:42 46.36274 8.35911 18028 ft 225 kts 354°
2026-05-07 19:43 46.37841 8.35868 18036 ft 225 kts 355°
2026-05-07 19:43 46.39410 8.35824 18034 ft 225 kts 355°
2026-05-07 19:43 46.40976 8.35784 18036 ft 226 kts 355°
2026-05-07 19:43 46.42551 8.35743 18037 ft 227 kts 355°
2026-05-07 19:44 46.44109 8.35698 18026 ft 226 kts 355°
2026-05-07 19:44 46.45681 8.35654 18022 ft 225 kts 355°
2026-05-07 19:44 46.47248 8.35612 18027 ft 225 kts 355°
2026-05-07 19:44 46.48811 8.35572 18020 ft 224 kts 355°
2026-05-07 19:45 46.50373 8.35529 18046 ft 225 kts 355°
2026-05-07 19:45 46.51944 8.35485 18041 ft 226 kts 355°
2026-05-07 19:45 46.53524 8.35441 18036 ft 227 kts 355°
2026-05-07 19:45 46.55098 8.35397 18025 ft 226 kts 355°
2026-05-07 19:46 46.56667 8.35356 18018 ft 224 kts 355°
2026-05-07 19:46 46.58222 8.35315 18038 ft 224 kts 355°
2026-05-07 19:46 46.59786 8.35272 18045 ft 225 kts 355°
2026-05-07 19:46 46.61357 8.35229 18041 ft 227 kts 355°
2026-05-07 19:47 46.62941 8.35185 18041 ft 227 kts 355°
2026-05-07 19:47 46.64526 8.35141 18038 ft 228 kts 355°
2026-05-07 19:47 46.66098 8.35099 18023 ft 228 kts 355°
2026-05-07 19:47 46.67702 8.35058 18018 ft 227 kts 355°
2026-05-07 19:48 46.69254 8.35016 18014 ft 225 kts 355°
2026-05-07 19:48 46.70817 8.34974 18035 ft 225 kts 355°
2026-05-07 19:48 46.72383 8.34930 18037 ft 226 kts 355°
2026-05-07 19:48 46.73955 8.34885 18031 ft 226 kts 355°
2026-05-07 19:49 46.75532 8.34841 18032 ft 227 kts 355°
2026-05-07 19:49 46.77112 8.34798 18035 ft 227 kts 355°
2026-05-07 19:49 46.78695 8.34756 18054 ft 227 kts 355°
2026-05-07 19:49 46.80278 8.34713 18047 ft 227 kts 355°
2026-05-07 19:50 46.81857 8.34670 18044 ft 226 kts 355°
2026-05-07 19:50 46.83424 8.34626 18055 ft 226 kts 355°
2026-05-07 19:50 46.84998 8.34583 18055 ft 226 kts 355°
2026-05-07 19:50 46.86568 8.34539 18050 ft 226 kts 355°
2026-05-07 19:51 46.88143 8.34495 18057 ft 226 kts 355°
2026-05-07 19:51 46.89717 8.34452 18052 ft 226 kts 355°
2026-05-07 19:51 46.91289 8.34409 18055 ft 226 kts 355°
2026-05-07 19:51 46.92863 8.34366 18056 ft 226 kts 355°
2026-05-07 19:52 46.94434 8.34326 18054 ft 226 kts 355°
2026-05-07 19:52 46.96005 8.34280 18056 ft 226 kts 355°
2026-05-07 19:52 46.97584 8.34235 18056 ft 227 kts 355°
2026-05-07 19:52 46.99161 8.34189 18052 ft 227 kts 355°
2026-05-07 19:53 47.00742 8.34146 18056 ft 227 kts 355°
2026-05-07 19:53 47.02304 8.34105 18055 ft 227 kts 355°
2026-05-07 19:53 47.03877 8.34062 18023 ft 227 kts 355°
2026-05-07 19:53 47.05466 8.34018 18026 ft 227 kts 355°
2026-05-07 19:54 47.07047 8.33974 18030 ft 227 kts 355°
2026-05-07 19:54 47.08626 8.33931 18028 ft 227 kts 355°
2026-05-07 19:54 47.10211 8.33887 18028 ft 227 kts 355°
2026-05-07 19:54 47.11791 8.33843 18029 ft 227 kts 355°
2026-05-07 19:55 47.13372 8.33799 18026 ft 227 kts 355°
2026-05-07 19:55 47.14955 8.33755 18027 ft 227 kts 355°
2026-05-07 19:55 47.16534 8.33711 18031 ft 227 kts 355°
2026-05-07 19:55 47.18115 8.33667 18030 ft 227 kts 355°
2026-05-07 19:56 47.19698 8.33624 18030 ft 227 kts 355°
2026-05-07 19:56 47.21190 8.33582 18050 ft 227 kts 355°
2026-05-07 19:56 47.22752 8.33538 18044 ft 227 kts 355°
2026-05-07 19:56 47.24329 8.33494 18049 ft 226 kts 355°
2026-05-07 19:57 47.25898 8.33450 18050 ft 226 kts 355°
2026-05-07 19:57 47.27477 8.33407 18054 ft 226 kts 355°
2026-05-07 19:57 47.29051 8.33519 18049 ft 229 kts
2026-05-07 19:57 47.30551 8.34354 18050 ft 233 kts 28°
2026-05-07 19:58 47.31785 8.35919 18053 ft 236 kts 47°
2026-05-07 19:58 47.32856 8.37757 18055 ft 236 kts 47°
2026-05-07 19:58 47.33949 8.39568 18052 ft 237 kts 46°
2026-05-07 19:58 47.35050 8.41376 18053 ft 237 kts 46°
2026-05-07 19:59 47.36151 8.43188 18052 ft 237 kts 46°
2026-05-07 19:59 47.37233 8.44975 18057 ft 237 kts 47°
2026-05-07 19:59 47.38329 8.46792 18053 ft 237 kts 47°
2026-05-07 19:59 47.39422 8.48608 18053 ft 236 kts 47°
2026-05-07 20:00 47.40513 8.50423 18055 ft 236 kts 47°
2026-05-07 20:00 47.41605 8.52241 18055 ft 236 kts 47°
2026-05-07 20:00 47.42694 8.54057 18056 ft 236 kts 47°
2026-05-07 20:00 47.43784 8.55877 18058 ft 236 kts 47°
2026-05-07 20:01 47.44829 8.57622 18055 ft 236 kts 47°
2026-05-07 20:01 47.45915 8.59438 18058 ft 236 kts 47°
2026-05-07 20:01 47.47004 8.61259 18056 ft 236 kts 47°
2026-05-07 20:01 47.48091 8.63078 18053 ft 236 kts 47°
2026-05-07 20:02 47.49177 8.64897 18060 ft 236 kts 47°
2026-05-07 20:02 47.50265 8.66719 18053 ft 236 kts 47°
2026-05-07 20:02 47.51350 8.68538 18052 ft 236 kts 47°
2026-05-07 20:02 47.52069 8.69744 18054 ft 236 kts 47°
2026-05-07 20:03 47.53155 8.71567 18056 ft 236 kts 47°
2026-05-07 20:03 47.54243 8.73395 18056 ft 236 kts 47°
2026-05-07 20:03 47.55328 8.75219 18050 ft 236 kts 47°
2026-05-07 20:03 47.56414 8.77045 18051 ft 236 kts 47°
2026-05-07 20:04 47.57500 8.78873 18053 ft 236 kts 47°
2026-05-07 20:04 47.58608 8.80665 18057 ft 235 kts 40°
2026-05-07 20:04 47.59963 8.81988 18051 ft 233 kts 21°
2026-05-07 20:04 47.61480 8.82670 18047 ft 230 kts 11°
2026-05-07 20:05 47.63029 8.83281 18063 ft 231 kts 12°
2026-05-07 20:05 47.64581 8.83922 18052 ft 231 kts 12°
2026-05-07 20:05 47.66131 8.84565 18053 ft 231 kts 12°
2026-05-07 20:05 47.67680 8.85206 18060 ft 231 kts 12°
2026-05-07 20:06 47.69233 8.85845 18060 ft 231 kts 12°
2026-05-07 20:06 47.70785 8.86482 18057 ft 231 kts 12°
2026-05-07 20:06 47.72337 8.87119 18056 ft 231 kts 12°
2026-05-07 20:06 47.73888 8.87754 18054 ft 231 kts 12°
2026-05-07 20:07 47.75438 8.88389 18059 ft 231 kts 12°
2026-05-07 20:07 47.76988 8.89024 18059 ft 231 kts 12°
2026-05-07 20:07 47.78547 8.89557 18054 ft 229 kts
2026-05-07 20:07 47.80129 8.89864 18062 ft 229 kts
2026-05-07 20:08 47.81715 8.90091 18057 ft 229 kts
2026-05-07 20:08 47.83281 8.90324 18059 ft 229 kts
2026-05-07 20:08 47.84868 8.90562 18056 ft 229 kts
2026-05-07 20:08 47.86454 8.90802 18061 ft 229 kts
2026-05-07 20:09 47.88044 8.91041 18061 ft 229 kts
2026-05-07 20:09 47.89629 8.91277 18059 ft 229 kts
2026-05-07 20:09 47.91212 8.91513 18062 ft 228 kts
2026-05-07 20:10 47.94378 8.91985 18062 ft 228 kts
2026-05-07 20:10 47.95960 8.92222 18063 ft 228 kts
2026-05-07 20:10 47.97544 8.92459 18069 ft 228 kts
2026-05-07 20:10 47.99121 8.92695 18065 ft 228 kts
2026-05-07 20:11 48.00701 8.92932 18070 ft 228 kts
2026-05-07 20:11 48.02283 8.93169 18073 ft 229 kts
2026-05-07 20:11 48.03869 8.93406 18069 ft 229 kts
2026-05-07 20:11 48.05430 8.93642 18074 ft 229 kts
2026-05-07 20:12 48.07016 8.93881 18073 ft 229 kts
2026-05-07 20:12 48.08608 8.94118 18073 ft 230 kts
2026-05-07 20:12 48.10197 8.94356 18069 ft 229 kts
2026-05-07 20:12 48.11788 8.94595 18068 ft 229 kts
2026-05-07 20:13 48.13379 8.94835 18072 ft 229 kts
2026-05-07 20:13 48.14961 8.95073 18071 ft 229 kts
2026-05-07 20:13 48.16550 8.95313 18072 ft 229 kts
2026-05-07 20:13 48.18137 8.95552 18073 ft 229 kts
2026-05-07 20:14 48.19717 8.95790 18068 ft 228 kts
2026-05-07 20:14 48.21297 8.96029 18072 ft 228 kts
2026-05-07 20:14 48.22873 8.96268 18076 ft 228 kts
2026-05-07 20:14 48.24455 8.96506 18072 ft 228 kts
2026-05-07 20:15 48.26035 8.96746 18074 ft 228 kts
2026-05-07 20:15 48.27592 8.96983 18075 ft 228 kts
2026-05-07 20:15 48.29170 8.97222 18078 ft 228 kts
2026-05-07 20:15 48.30753 8.97462 18078 ft 229 kts
2026-05-07 20:16 48.32340 8.97703 18076 ft 229 kts
2026-05-07 20:16 48.33929 8.97944 18070 ft 229 kts
2026-05-07 20:16 48.35518 8.98186 18074 ft 229 kts
2026-05-07 20:16 48.37105 8.98427 18073 ft 229 kts
2026-05-07 20:17 48.38692 8.98668 18073 ft 229 kts
2026-05-07 20:17 48.40277 8.98909 18072 ft 229 kts
2026-05-07 20:17 48.41858 8.99150 18073 ft 229 kts
2026-05-07 20:17 48.43442 8.99391 18079 ft 229 kts
2026-05-07 20:18 48.45028 8.99633 18077 ft 229 kts
2026-05-07 20:18 48.46611 8.99876 18080 ft 229 kts
2026-05-07 20:18 48.48193 9.00117 18081 ft 229 kts
2026-05-07 20:18 48.49780 9.00359 18079 ft 229 kts
2026-05-07 20:19 48.51368 9.00601 18074 ft 229 kts
2026-05-07 20:19 48.52953 9.00843 18079 ft 229 kts
2026-05-07 20:19 48.54547 9.01086 18078 ft 230 kts
2026-05-07 20:19 48.56134 9.01329 18079 ft 229 kts
2026-05-07 20:20 48.57704 9.01570 18078 ft 229 kts
2026-05-07 20:20 48.59311 9.01815 18078 ft 229 kts
2026-05-07 20:20 48.60898 9.02059 18081 ft 229 kts
2026-05-07 20:20 48.62487 9.02303 18082 ft 229 kts
2026-05-07 20:21 48.64073 9.02571 18083 ft 230 kts
2026-05-07 20:21 48.65655 9.02924 18081 ft 230 kts
2026-05-07 20:21 48.67236 9.03320 18080 ft 230 kts
2026-05-07 20:21 48.68819 9.03723 18087 ft 231 kts
2026-05-07 20:22 48.70379 9.04118 18081 ft 230 kts
2026-05-07 20:22 48.71962 9.04513 18080 ft 230 kts
2026-05-07 20:22 48.73543 9.04902 18081 ft 230 kts
2026-05-07 20:22 48.75123 9.05284 18075 ft 230 kts
2026-05-07 20:23 48.76700 9.05663 18080 ft 229 kts
2026-05-07 20:23 48.78279 9.06041 18083 ft 230 kts
2026-05-07 20:23 48.79860 9.06419 18085 ft 230 kts
2026-05-07 20:23 48.81443 9.06798 18079 ft 230 kts
2026-05-07 20:24 48.83021 9.07176 18081 ft 230 kts
2026-05-07 20:24 48.84603 9.07554 18078 ft 230 kts
2026-05-07 20:24 48.86178 9.07932 18078 ft 229 kts
2026-05-07 20:24 48.87755 9.08282 18079 ft 228 kts
2026-05-07 20:25 48.89335 9.08405 18076 ft 226 kts 355°
2026-05-07 20:25 48.90907 9.08360 18079 ft 226 kts 354°
2026-05-07 20:25 48.92480 9.08325 18078 ft 226 kts 355°
2026-05-07 20:25 48.94058 9.08295 18078 ft 226 kts 355°
2026-05-07 20:26 48.95613 9.08268 18076 ft 226 kts 355°
2026-05-07 20:26 48.97205 9.08239 18073 ft 226 kts 355°
2026-05-07 20:26 48.98755 9.08210 18069 ft 226 kts 355°
2026-05-07 20:26 49.00327 9.08180 18073 ft 226 kts 355°
2026-05-07 20:27 49.01896 9.08148 18072 ft 225 kts 355°
2026-05-07 20:27 49.03464 9.08117 18069 ft 225 kts 355°
2026-05-07 20:27 49.05069 9.08082 17787 ft 236 kts 355°
2026-05-07 20:27 49.06741 9.08043 17473 ft 244 kts 355°
2026-05-07 20:28 49.08457 9.08006 17161 ft 249 kts 356°
2026-05-07 20:28 49.10201 9.07973 16842 ft 252 kts 356°
2026-05-07 20:28 49.11965 9.07941 16526 ft 253 kts 356°
2026-05-07 20:28 49.13730 9.07908 16214 ft 254 kts 356°
2026-05-07 20:29 49.15477 9.07875 15910 ft 254 kts 357°
2026-05-07 20:29 49.17241 9.07841 15621 ft 253 kts 357°
2026-05-07 20:29 49.18996 9.07807 15349 ft 252 kts 357°
2026-05-07 20:29 49.20745 9.07774 15077 ft 250 kts 358°
2026-05-07 20:30 49.22487 9.07739 14809 ft 249 kts 358°
2026-05-07 20:30 49.24220 9.07705 14542 ft 248 kts 358°
2026-05-07 20:30 49.25940 9.07669 14276 ft 247 kts 358°
2026-05-07 20:30 49.27658 9.07633 14004 ft 246 kts 358°
2026-05-07 20:31 49.29367 9.07598 13728 ft 245 kts 358°
2026-05-07 20:31 49.31066 9.07562 13433 ft 244 kts 358°
2026-05-07 20:31 49.32763 9.07528 13140 ft 243 kts 358°
2026-05-07 20:31 49.34454 9.07494 12852 ft 242 kts 358°
2026-05-07 20:32 49.36133 9.07460 12564 ft 241 kts 358°
2026-05-07 20:32 49.37804 9.07428 12282 ft 240 kts 358°
2026-05-07 20:32 49.39471 9.07393 12003 ft 239 kts 357°
2026-05-07 20:32 49.41132 9.07359 11723 ft 238 kts 357°
2026-05-07 20:33 49.42783 9.07326 11446 ft 237 kts 357°
2026-05-07 20:33 49.44430 9.07291 11176 ft 236 kts 357°
2026-05-07 20:33 49.46073 9.07253 10901 ft 235 kts 357°
2026-05-07 20:33 49.47707 9.07218 10630 ft 234 kts 357°
2026-05-07 20:34 49.49330 9.07185 10362 ft 233 kts 357°
2026-05-07 20:34 49.50945 9.07151 10103 ft 232 kts 357°
2026-05-07 20:34 49.52529 9.07118 9828 ft 229 kts 357°
2026-05-07 20:34 49.54117 9.07085 9526 ft 227 kts 357°
2026-05-07 20:35 49.55689 9.07054 9229 ft 225 kts 357°
2026-05-07 20:35 49.57248 9.07021 8938 ft 223 kts 357°
2026-05-07 20:35 49.58793 9.06989 8639 ft 221 kts 357°
2026-05-07 20:35 49.60325 9.06954 8358 ft 220 kts 357°
2026-05-07 20:36 49.61851 9.06921 8087 ft 219 kts 357°
2026-05-07 20:36 49.63375 9.06892 7804 ft 218 kts 357°
2026-05-07 20:36 49.64885 9.06861 7528 ft 217 kts 357°
2026-05-07 20:36 49.66388 9.06830 7252 ft 216 kts 358°
2026-05-07 20:37 49.67762 9.06802 7005 ft 215 kts 358°
2026-05-07 20:37 49.69252 9.06770 6733 ft 214 kts 358°
2026-05-07 20:37 49.70737 9.06738 6464 ft 213 kts 358°
2026-05-07 20:37 49.72214 9.06708 6182 ft 212 kts 358°
2026-05-07 20:38 49.73664 9.06676 5898 ft 210 kts 358°
2026-05-07 20:38 49.75141 9.06645 5609 ft 209 kts 358°
2026-05-07 20:38 49.76571 9.06616 5326 ft 207 kts 358°
2026-05-07 20:38 49.78004 9.06611 5048 ft 202 kts
2026-05-07 20:39 49.79339 9.07094 4767 ft 193 kts 15°
2026-05-07 20:39 49.80606 9.07681 4466 ft 188 kts 16°
2026-05-07 20:39 49.81842 9.08284 4189 ft 184 kts 15°
2026-05-07 20:39 49.83100 9.08407 3908 ft 181 kts 354°
2026-05-07 20:40 49.84316 9.07952 3631 ft 180 kts 336°
2026-05-07 20:40 49.85073 9.07401 3451 ft 180 kts 334°
2026-05-07 20:40 49.86328 9.06425 3139 ft 180 kts 334°
2026-05-07 20:40 49.87452 9.05553 2850 ft 180 kts 334°
2026-05-07 20:41 49.88577 9.04696 2565 ft 180 kts 335°
2026-05-07 20:41 49.89709 9.03845 2281 ft 180 kts 335°
2026-05-07 20:41 49.90837 9.03003 1998 ft 178 kts 335°
2026-05-07 20:41 49.91928 9.02189 1713 ft 171 kts 335°
2026-05-07 20:42 49.92974 9.01408 1538 ft 162 kts 335°
2026-05-07 20:42 49.93948 9.00677 1462 ft 147 kts 335°
2026-05-07 20:42 49.94828 9.00050 1395 ft 134 kts 347°
2026-05-07 20:42 49.95680 9.00336 1319 ft 124 kts 45°
2026-05-07 20:43 49.96043 9.01496 1401 ft 118 kts 71°
2026-05-07 20:43 49.95911 9.02680 1355 ft 120 kts 137°
2026-05-07 20:43 49.95190 9.03298 1122 ft 114 kts 154°
2026-05-07 20:43 49.94481 9.03752 1003 ft 104 kts 158°
2026-05-07 20:44 49.93819 9.04200 778 ft 102 kts 134°
2026-05-07 20:44 49.93736 9.05134 581 ft 92 kts 73°
2026-05-07 20:44 49.93866 9.06080 419 ft 79 kts 78°
2026-05-07 20:44 49.93944 9.06672 417 ft 30 kts 78°
2026-05-07 20:45 49.93986 9.06798 418 ft 10 kts 351°
2026-05-07 20:45 49.93997 9.06717 418 ft 11 kts 261°
2026-05-07 20:45 49.93980 9.06576 418 ft 15 kts 258°
2026-05-07 20:45 49.93956 9.06397 417 ft 18 kts 258°
2026-05-07 20:46 49.93928 9.06202 415 ft 19 kts 259°
2026-05-07 20:46 49.93906 9.06007 418 ft 18 kts 255°
2026-05-07 20:46 49.93880 9.05828 419 ft 16 kts 259°
2026-05-07 20:46 49.93862 9.05673 420 ft 14 kts 284°
2026-05-07 20:47 49.93892 9.05648 419 ft 3 kts 46°
2026-05-07 20:47 49.93892 9.05649 419 ft 0 kts 45°